Ana Sayfa
METAR-TAF:

METAR-TAF

Havaalanları :

Naval Auxiliary Landing Field Fentress

Chesapeake, Virginia, Amerika Birleşik Devletleri

Enlem: 36-42-03N, Boylam: 076-07-42W, yükseklik: 3 m

Güncel hava durumu gözlemi

Rapor saat 21:56 UTC de 1 saat ve 3 dakika önce yapıldı.
Rüzgar değişken yönden 5 kt
Sıcaklık 18°C
Nem 77%
Basınç 1015 hPa
Görüş mesafesi: 16.1 km
Açık gökyüzü

METAR: KNFE 092156Z AUTO VRB05KT 10SM CLR 18/14 A2997 RMK AO2 SLP149 T01830144

Saat: 17:59 (22:59 UTC)


TAF: eksik

4.000'den fazla havaalanı için hava durumu gözlemleri ve tahminleri (METAR ve TAF raporları).

Kullanılabilir istasyonlar harita üzerinde sarı ve kırmızı noktalarla gösterilir.

İstasyonun adını görmek için fareyi noktanın üzerinde gezdirin.

Sonrasında hava gözlem ve tahminlerini görmek için tıklayın.

Haritayı değiştirmek için: yaklaştırmak için siyah artı işaretli yeşil düğmeye ve uzaklaştırmak için de eksi işaretli düğmeye hızla tıklayın; bitişik haritalar için yeşil okları kullanın.


METAR-TAF: